Retour au catalogue

THORAD AGENA D DEB

ActifSSO
NORAD 4675·DEBRIS·🇺🇸 United States

Lancé Apr 8, 1970 depuis Vandenberg Space Force Base

Loading…

Prochains Passages (prochaines 24 heures)

TLE

FraisSource: Space-Track

Époque: Sep 14, 2026, 10:22 UTC

1 04675U 70025AY  26257.43214522 -.00000028  00000-0  29843-4 0  9992
2 04675 100.1891 237.2421 0001059 138.2663  25.2028 13.51557338781814

Suivez THORAD AGENA D DEB en temps réel avec AllMySat

Download on the App Store